Date String (YYYY-MM-DD hh:mm:ss) UTC,Instrument flags,absolute air pressure of the measurement (hPa),sample flow rate (lpm),inlet stack bypass flow (lpm),air temperature of the measurement (°C),ambient temperature measured by the external sensor (°C),aerosol sample conditioner tube jacket temperature (°C),OPC LED temperature (°C),internal box temperature (°C),relative humidity of the measurement (%),span deviation,mass concentration of particles derived from Lorenz-Mie calculation of OPC scattering (μg/m³),mass concentration of particles derived from Lorenz-Mie calculation of OPC scattering (μg/m³),mass concentration of particles derived from Lorenz-Mie calculation of OPC scattering (μg/m³)
DateTimeUTC,F1_M11,P_M11,Q1_M11,Q2_M11,T1_M11,T2_M11,T3_M11,T4_M11,T5_M11,U1_M11,ZSPAN_M11,X0_M11,X2_M11,X1_M11
2023-11-14 13:00:00,SystemResetWarning,0830.9,5.00,000.00,026.2,025.2,000.0,034.6,027.6,4.3,0000.0,0002.27,0001.45,0001.12
2023-11-14 13:01:00,SystemResetWarning,0830.9,5.00,000.00,026.2,025.2,000.0,034.6,027.6,4.3,0000.0,0002.31,0001.43,0001.11
2023-11-14 13:02:00,SystemResetWarning,0831.0,5.00,000.00,026.2,025.2,000.0,034.6,027.6,4.4,0000.0,0002.80,0001.46,0001.10
2023-11-14 13:03:00,SystemResetWarning,0831.0,5.00,000.00,026.2,025.2,000.0,034.6,027.6,4.4,0000.0,0003.47,0001.45,0001.11
2023-11-14 13:04:00,SystemResetWarning,0831.1,5.00,000.00,026.2,025.1,000.0,034.6,027.7,4.4,0000.0,0003.49,0001.41,0001.09
2023-11-14 13:05:00,SystemResetWarning,0831.1,5.00,000.00,026.2,025.2,000.0,034.6,027.7,4.4,0000.0,0003.72,0001.35,0001.06
2023-11-14 13:06:00,SystemResetWarning,0831.1,5.00,000.00,026.2,025.2,000.0,034.6,027.6,4.4,0000.0,0004.02,0001.30,0001.04
2023-11-14 13:07:00,SystemResetWarning,0831.1,4.99,000.00,026.2,025.1,000.0,034.6,027.6,4.5,0000.0,0004.07,0001.27,0001.02
2023-11-14 13:08:00,SystemResetWarning,0831.1,4.99,000.00,026.2,025.1,000.0,034.6,027.6,4.6,0000.0,0003.93,0001.20,0000.99
2023-11-14 13:09:00,SystemResetWarning,0831.1,5.00,000.00,026.2,025.1,000.0,034.6,027.6,4.6,0000.0,0003.77,0001.18,0001.00
2023-11-14 13:10:00,SystemResetWarning,0831.1,5.00,000.00,026.2,025.1,000.0,034.6,027.6,4.6,0000.0,0005.28,0001.21,0001.00
2023-11-14 13:11:00,SystemResetWarning,0831.1,5.00,000.00,026.2,025.2,000.0,034.6,027.7,4.6,0000.0,0005.53,0001.23,0001.00
2023-11-14 13:12:00,SystemResetWarning,0831.1,5.00,000.00,026.2,025.2,000.0,034.6,027.7,4.6,0000.0,0005.45,0001.23,0000.99
2023-11-14 13:13:00,SystemResetWarning,0831.1,5.00,000.00,026.2,025.2,000.0,034.6,027.7,4.6,0000.0,0004.91,0001.20,0000.99
2023-11-14 13:14:00,SystemResetWarning,0831.1,5.01,000.00,026.2,025.2,000.0,034.6,027.7,4.6,0000.0,0004.28,0001.20,0000.98
2023-11-14 13:15:00,SystemResetWarning,0831.1,5.00,000.00,026.2,025.2,000.0,034.6,027.7,4.6,0000.0,0004.23,0001.20,0000.98
2023-11-14 13:16:00,SystemResetWarning,0831.2,5.01,000.00,026.2,025.2,000.0,034.6,027.7,4.6,0000.0,0003.88,0001.22,0000.99
2023-11-14 13:17:00,SystemResetWarning,0831.2,5.00,000.00,026.2,025.2,000.0,034.6,027.7,4.6,0000.0,0003.59,0001.25,0001.00
2023-11-14 13:18:00,SystemResetWarning,0831.1,5.00,000.00,026.2,025.2,000.0,034.6,027.7,4.6,0000.0,0003.49,0001.24,0001.01
2023-11-14 13:19:00,SystemResetWarning,0831.0,5.00,000.00,026.2,025.2,000.0,034.6,027.7,4.6,0000.0,0003.50,0001.24,0001.00
2023-11-14 13:20:00,SystemResetWarning,0831.1,5.00,000.00,026.2,025.2,000.0,034.6,027.7,4.7,0000.0,0003.61,0001.25,0000.99
2023-11-14 13:21:00,SystemResetWarning,0831.0,4.99,000.00,026.2,025.2,000.0,034.6,027.7,4.6,0000.0,0002.80,0001.21,0000.99
2023-11-14 13:22:00,SystemResetWarning,0831.1,4.99,000.00,026.2,025.2,000.0,034.6,027.7,4.7,0000.0,0004.42,0001.19,0000.98
2023-11-14 13:23:00,SystemResetWarning,0831.0,5.00,000.00,026.2,025.2,000.0,034.6,027.6,4.7,0000.0,0006.05,0001.19,0000.98
2023-11-14 13:24:00,SystemResetWarning,0831.0,5.00,000.00,026.2,025.2,000.0,034.6,027.7,4.8,0000.0,0006.27,0001.19,0000.98
2023-11-14 13:25:00,SystemResetWarning,0831.1,5.01,000.00,026.2,025.2,000.0,034.6,027.6,4.9,0000.0,0006.16,0001.19,0000.98
2023-11-14 13:26:00,SystemResetWarning,0831.0,5.01,000.00,026.2,025.2,000.0,034.6,027.6,4.9,0000.0,0006.40,0001.23,0000.98
2023-11-14 13:27:00,SystemResetWarning,0831.0,5.00,000.00,026.2,025.1,000.0,034.6,027.6,4.7,0000.0,0006.52,0001.25,0000.98
2023-11-14 13:28:00,SystemResetWarning,0831.0,4.99,000.00,026.2,025.1,000.0,034.6,027.6,4.7,0000.0,0006.48,0001.25,0000.98
2023-11-14 13:29:00,SystemResetWarning,0831.0,5.00,000.00,026.2,025.2,000.0,034.6,027.6,4.6,0000.0,0006.58,0001.30,0000.99
2023-11-14 13:30:00,SystemResetWarning,0831.0,5.00,000.00,026.2,025.2,000.0,034.6,027.6,4.5,0000.0,0006.61,0001.33,0001.01
2023-11-14 13:31:00,SystemResetWarning,0831.0,4.99,000.00,026.2,025.2,000.0,034.6,027.7,4.6,0000.0,0006.58,0001.35,0001.01
2023-11-14 13:32:00,SystemResetWarning,0831.0,5.00,000.00,026.2,025.2,000.0,034.6,027.6,4.7,0000.0,0006.66,0001.44,0001.03
2023-11-14 13:33:00,SystemResetWarning,0831.0,5.01,000.00,026.2,025.2,000.0,034.6,027.7,4.7,0000.0,0005.36,0001.48,0001.04
2023-11-14 13:34:00,SystemResetWarning,0830.9,5.01,000.00,026.2,025.2,000.0,034.6,027.7,4.7,0000.0,0003.48,0001.46,0001.05
2023-11-14 13:35:00,SystemResetWarning,0830.9,5.01,000.00,026.2,025.2,000.0,034.6,027.7,4.7,0000.0,0003.32,0001.48,0001.06
2023-11-14 13:36:00,SystemResetWarning,0831.0,4.99,000.00,026.2,025.2,000.0,034.6,027.7,4.7,0000.0,0003.31,0001.48,0001.07
2023-11-14 13:37:00,SystemResetWarning,0831.2,5.00,000.00,026.2,025.2,000.0,034.6,027.7,4.6,0000.0,0002.99,0001.43,0001.08
2023-11-14 13:38:00,SystemResetWarning,0831.1,5.00,000.00,026.2,025.2,000.0,034.6,027.7,4.6,0000.0,0002.89,0001.43,0001.09
2023-11-14 13:39:00,SystemResetWarning,0831.1,5.00,000.00,026.2,025.2,000.0,034.6,027.6,4.6,0000.0,0002.88,0001.42,0001.10
2023-11-14 13:40:00,SystemResetWarning,0831.2,5.00,000.00,026.2,025.3,000.0,034.6,027.7,4.6,0000.0,0002.84,0001.40,0001.10
2023-11-14 13:41:00,SystemResetWarning,0831.1,5.00,000.00,026.2,025.2,000.0,034.5,027.7,4.6,0000.0,0002.91,0001.43,0001.11
2023-11-14 13:42:00,SystemResetWarning,0831.2,5.00,000.00,026.2,025.2,000.0,034.5,027.7,4.7,0000.0,0002.85,0001.42,0001.11
2023-11-14 13:43:00,SystemResetWarning,0831.2,5.00,000.00,026.2,025.3,000.0,034.5,027.7,4.7,0000.0,0002.33,0001.36,0001.11
2023-11-14 13:44:00,SystemResetWarning,0831.2,5.00,000.00,026.2,025.3,000.0,034.6,027.7,4.7,0000.0,0001.76,0001.33,0001.11
2023-11-14 13:45:00,SystemResetWarning,0831.2,5.00,000.00,026.2,025.3,000.0,034.5,027.7,4.7,0000.0,0002.45,0001.35,0001.13
2023-11-14 13:46:00,SystemResetWarning,0831.2,5.00,000.00,026.2,025.2,000.0,034.5,027.6,4.7,0000.0,0002.82,0001.36,0001.13
2023-11-14 13:47:00,SystemResetWarning,0831.1,5.00,000.00,026.2,025.2,000.0,034.5,027.6,4.8,0000.0,0002.83,0001.36,0001.14
2023-11-14 13:48:00,SystemResetWarning,0831.1,5.00,000.00,026.2,025.2,000.0,034.5,027.6,4.8,0000.0,0002.89,0001.37,0001.14
2023-11-14 13:49:00,SystemResetWarning,0831.1,5.00,000.00,026.2,025.2,000.0,034.5,027.6,4.8,0000.0,0003.95,0001.39,0001.13
2023-11-14 13:50:00,SystemResetWarning,0831.1,5.00,000.00,026.2,025.2,000.0,034.6,027.6,4.8,0000.0,0004.71,0001.39,0001.13
2023-11-14 13:51:00,SystemResetWarning,0831.1,5.00,000.00,026.2,025.2,000.0,034.5,027.7,4.9,0000.0,0004.70,0001.40,0001.14
2023-11-14 13:52:00,SystemResetWarning,0831.1,5.00,000.00,026.2,025.2,000.0,034.6,027.7,4.9,0000.0,0004.91,0001.40,0001.13
2023-11-14 13:53:00,SystemResetWarning,0831.2,4.99,000.00,026.2,025.2,000.0,034.5,027.7,4.9,0000.0,0004.87,0001.37,0001.12
2023-11-14 13:54:00,SystemResetWarning,0831.2,4.99,000.00,026.2,025.2,000.0,034.5,027.6,4.9,0000.0,0004.93,0001.37,0001.13
2023-11-14 13:55:00,SystemResetWarning,0831.2,5.00,000.00,026.2,025.2,000.0,034.5,027.6,4.8,0000.0,0005.52,0001.42,0001.13
2023-11-14 13:56:00,SystemResetWarning,0831.2,5.01,000.00,026.1,025.1,000.0,034.5,027.6,4.7,0000.0,0005.01,0001.45,0001.13
2023-11-14 13:57:00,SystemResetWarning,0831.2,5.01,000.00,026.1,025.1,000.0,034.5,027.6,4.7,0000.0,0004.69,0001.45,0001.13
2023-11-14 13:58:00,SystemResetWarning,0831.2,4.99,000.00,026.1,025.1,000.0,034.5,027.5,4.7,0000.0,0004.76,0001.45,0001.14
2023-11-14 13:59:00,SystemResetWarning,0831.2,5.00,000.00,026.1,025.1,000.0,034.5,027.6,4.7,0000.0,0005.08,0001.44,0001.13
